User: anonymous   Login
Location: Brno
(49.2000°N, 16.6330°E)
Time: 13:54:49
(UTC+01:00)
Language:

Cosmos 332 Rocket - Orbit

View from above orbital plane
View from above orbital plane
View from above satellite
View from above satellite

Ground track
Ground track

The orbit data is extracted from the following two-line orbital elements,

1 04370U 70028B   17019.16319242 -.00000044  00000-0 -27957-5 0  9992
2 04370  74.0396  13.4468 0016389 325.0107  34.9981 14.59825939990238
Epoch (UTC): 19 January 2017 03:54:59
Eccentricity: 0.0016389
inclination: 74.0396°
perigee height: 682 km
apogee height: 705 km
right ascension of ascending node: 13.4468°
argument of perigee: 325.0107°
revolutions per day: 14.59825939
mean anomaly at epoch: 34.9981°
orbit number at epoch: 99023

The dashed part of the orbit path shows where the satellite is in the earth's shadow,  

DLR